STARLING 1

Satellite information

Favourite Embed

Satellite Type and Status

PAYLOADIN ORBIT

Key statistics

Satellite STARLING 1 at a glance.

Uptime

829

Days in orbit

Revolutions

≈ 15.0

Per day

Orbit

SSO

Sun Synchronous Orbit

Inclination

99.5

Latest

Satellite identification and parameters

Extended collection of information and parameters for STARLING 1.

Object identification

Identified? True

Debris? False

Object name: STARLING 1

International designator: 2023-100C

Object number (NORAD): 57388

Object ID (CCSDS): 57388

Country: UNITED STATES OF AMERICA (US)

Current information (Y/N): Y

RCS size: MEDIUM

Orbital parameters

Period: 95.682 minutes

Inclination: 99.4976 deg

SMA: 6929.669 km

Apoapsis: 555.015 km

Periapsis: 548.053 km

RAAN: 255.524 deg

Eccentricy: 0.00050234

Argument of periapsis: 332.3634 deg

Mean anomaly: 27.7319 deg

Mean motion: 15.04991403 rev/day

Mean motion (dot): 0.00004545 rev/day2

B* drag term: 0.00032641754 1/REarth

Two-line elements (TLE)

Creation date: Oct. 24, 2025, 2:48 a.m.

Reference frame: TEME

Reference center: EARTH

Epoch: Oct. 23, 2025, 9:58 p.m. UTC

TLE line 0: 0 STARLING 1

TLE line 1: 1 57388U 23100C 25296.91582716 .00004545 00000-0 32642-3 0 9998

TLE line 2: 2 57388 99.4976 255.5240 0005023 332.3634 27.7319 15.04991403124343

Live tracking on map

Real-time ground track for satellite STARLING 1.

In-orbit conjunctions

There are no conjunctions computed for STARLING 1, at the moment. Check back to stay up to date, as we update our databases every day.

Go to all conjunctions

Associated space launch

The "Baby Come Back" mission includes NASA's Starling project, which consists of four CubeSats designed to test technologies for future swarm missions. Telesat contributes the LEO 3 demonstration satellite, ensuring continuity for customers and ecosystem vendor testing. Additionally, two 3U satellites carrying GNSS-RO payloads from SpinGlobal will replenish their constellation of over 100 multipurpose satellites.

STARLING 1 was lifted into orbit during the mission ‘Electron | Baby Come Back (Rideshare)’, on board a Electron space rocket.

The launch took place on July 18, 2023, 1:27 a.m. from Rocket Lab Launch Complex 1B.

For more information about the launch, click the button.

Launch to space Electron | Baby Come Back (Rideshare)
Electron | Baby Come Back (Rideshare)

Agency: N/A

Status: Launch Successful

Launch date: July 18, 2023, 1:27 a.m. UTC

Rocket: Electron

Launch pad: Rocket Lab Launch Complex 1B

Location: Rocket Lab Launch Complex 1, Mahia Peninsula, New Zealand

...

Latest news about this satellite

News about space launch
NASA boosts science objectives for Starling swarm

NASA is expanding testing of distributed autonomy for its first satellite swarm, Starling. The post NASA boosts science objectives for Starling swarm appeared first on SpaceNews.

News about space launch
Launch Roundup: Rocket Lab conducts Electron reuse attempt, SpaceX flies two Starlink v2 missions

The week of July 16 through July 23 saw four more launches take place around the world, potentially increasing the orbital launch count to 108 so far in 2023. This included Rocket Lab’s launch of the “Baby Come Back” mission (which featured a first stage ...

News about space launch
Rocket Lab launches 7 satellites, recovers first stage booster

The ‘Baby Come Back’ mission successfully lifted off from Launch Complex 1B on the Mahia Peninsula in New Zealand at 01:27 UTC,...


Newsletter sign-up

Weekly statistics, charts and insights to help you stay on top of the space industry.